TimeMST,TemperatureF,Dew PointF,Humidity,Sea Level PressureIn,VisibilityMPH,Wind Direction,Wind SpeedMPH,Gust SpeedMPH,PrecipitationIn,Events,Conditions,WindDirDegrees,DateUTC
12:53 AM,34.0,30.9,89,29.83,10.0,NE,3.5,-,N/A,,Clear,40,2012-11-21 07:53:00
1:53 AM,32.0,30.0,92,29.82,10.0,Calm,Calm,-,N/A,,Clear,0,2012-11-21 08:53:00
2:53 AM,28.0,28.0,100,29.82,5.0,Calm,Calm,-,N/A,,Clear,0,2012-11-21 09:53:00
3:01 AM,28.4,26.6,93,29.77,1.8,ESE,3.5,-,N/A,,Clear,110,2012-11-21 10:01:00
3:13 AM,28.4,28.4,100,29.77,4.0,East,3.5,-,N/A,,Clear,90,2012-11-21 10:13:00
3:53 AM,28.0,27.0,96,29.82,10.0,NE,4.6,-,N/A,,Clear,40,2012-11-21 10:53:00
4:53 AM,28.9,27.0,92,29.82,10.0,East,4.6,-,N/A,,Clear,90,2012-11-21 11:53:00
5:53 AM,26.1,25.0,96,29.83,10.0,ENE,4.6,-,N/A,,Clear,60,2012-11-21 12:53:00
6:53 AM,28.0,27.0,96,29.81,10.0,ENE,3.5,-,N/A,,Clear,70,2012-11-21 13:53:00
7:53 AM,27.0,25.0,92,29.79,7.0,East,3.5,-,N/A,,Clear,80,2012-11-21 14:53:00
8:53 AM,30.0,28.0,92,29.76,5.0,NE,3.5,-,N/A,,Partly Cloudy,50,2012-11-21 15:53:00
9:53 AM,33.1,30.0,89,29.74,5.0,ENE,5.8,-,N/A,,Overcast,60,2012-11-21 16:53:00
10:53 AM,37.0,32.0,82,29.68,7.0,ENE,10.4,-,N/A,,Scattered Clouds,70,2012-11-21 17:53:00
11:53 AM,37.9,32.0,79,29.66,8.0,NNE,3.5,-,N/A,,Mostly Cloudy,20,2012-11-21 18:53:00
12:53 PM,41.0,35.1,79,29.65,10.0,Calm,Calm,-,0.00,,Scattered Clouds,0,2012-11-21 19:53:00
1:53 PM,41.0,35.1,79,29.66,10.0,SSW,4.6,-,0.00,,Clear,210,2012-11-21 20:53:00
2:53 PM,39.0,34.0,82,29.68,10.0,WSW,10.4,-,N/A,,Clear,250,2012-11-21 21:53:00
3:53 PM,37.0,34.0,89,29.71,10.0,WSW,8.1,-,N/A,,Clear,250,2012-11-21 22:53:00
4:53 PM,35.1,33.1,92,29.75,10.0,West,4.6,-,N/A,,Scattered Clouds,280,2012-11-21 23:53:00
5:01 PM,35.6,33.8,93,29.68,10.0,Calm,Calm,-,N/A,,Mostly Cloudy,0,2012-11-22 00:01:00
5:22 PM,35.6,33.8,93,29.70,10.0,Calm,Calm,-,N/A,,Overcast,0,2012-11-22 00:22:00
5:53 PM,36.0,34.0,93,29.77,10.0,Calm,Calm,-,N/A,,Overcast,0,2012-11-22 00:53:00
6:22 PM,35.6,33.8,93,29.71,10.0,Calm,Calm,-,N/A,,Scattered Clouds,0,2012-11-22 01:22:00
6:45 PM,35.6,33.8,93,29.72,10.0,Calm,Calm,-,N/A,,Mostly Cloudy,0,2012-11-22 01:45:00
6:53 PM,36.0,34.0,93,29.78,10.0,NNE,3.5,-,N/A,,Mostly Cloudy,20,2012-11-22 01:53:00
7:18 PM,35.6,33.8,93,29.73,10.0,Calm,Calm,-,N/A,,Mostly Cloudy,0,2012-11-22 02:18:00
7:53 PM,35.1,32.0,89,29.82,10.0,NNW,4.6,-,N/A,,Overcast,340,2012-11-22 02:53:00
8:53 PM,35.1,32.0,89,29.82,10.0,Calm,Calm,-,0.00,,Overcast,0,2012-11-22 03:53:00
9:01 PM,35.6,32.0,87,29.76,10.0,Calm,Calm,-,N/A,,Mostly Cloudy,0,2012-11-22 04:01:00
9:13 PM,35.6,32.0,87,29.76,10.0,Calm,Calm,-,N/A,,Scattered Clouds,0,2012-11-22 04:13:00
9:36 PM,33.8,30.2,87,29.76,10.0,Calm,Calm,-,N/A,,Mostly Cloudy,0,2012-11-22 04:36:00
9:53 PM,33.1,30.9,92,29.84,10.0,Calm,Calm,-,N/A,,Overcast,0,2012-11-22 04:53:00
10:53 PM,34.0,30.9,89,29.87,7.0,NW,6.9,-,0.00,Snow,Light Snow,310,2012-11-22 05:53:00
11:53 PM,34.0,30.9,89,29.88,10.0,NW,6.9,-,0.00,,Overcast,310,2012-11-22 06:53:00